Regional Weather Roundup
Issued by NWS Kansas City/Pleasant Hill, MO

Home | Current Version | Previous Version | Graphics & Text | Print | Product List | Glossary Off
Versions: 1 2 3 4 5 6 7 8 9 10 11 12 13 14 15 16 17 18 19 20 21 22 23 24 25 26 27

000
ASUS43 KEAX 210210
RWREAX

WEATHER ROUNDUP FOR EASTERN KANSAS AND NORTHWEST MISSOURI
NATIONAL WEATHER SERVICE KANSAS CITY/PLEASANT HILL MO
900 PM CDT WED SEP 20 2017

KSZ040-057-103>105-MOZ028-029-037-043-210300-
...KANSAS CITY METROPOLITAN AREA...

CITY           SKY/WX    TMP DP  RH WIND       PRES   REMARKS
K.C. INTL      MOCLDY    78  74  87 S6        29.83S
K.C. DOWNTOWN  MOCLDY    85  76  74 SE5       29.81S HX  94
LEES SUMMIT    PTCLDY    83  75  77 S8        29.85R HX  90
OLATHE - IXD   MOCLDY    81  74  79 SE8       29.84R
OLATHE - OJC   PTCLDY    80  75  84 S5        29.84R
LAWRENCE       MOCLDY    79  75  87 E5        29.81R

$$

MOZ001>008-011>017-020>025-030>033-038>040-044>046-053-054-210300-
...NORTHERN AND CENTRAL MISSOURI...

CITY           SKY/WX    TMP DP  RH WIND       PRES   REMARKS
ST. JOSEPH     PTCLDY    75  73  93 N3        29.82R
MOSBY          MOCLDY    79  73  83 CALM      29.83S
WARRENSBURG    PTCLDY    79  72  78 S5        29.85R
WHITEMAN AFB   PTCLDY    78  78 100 S3        29.84R
CLINTON        CLEAR     77  73  88 S5        29.85S
SEDALIA        CLEAR     79  74  84 S7        29.86R
WARSAW         NOT AVBL
CHILLICOTHE      N/A     77  77 100 CALM      29.84S
KIRKSVILLE     CLOUDY    78  70  76 W5        29.86R

$$

MOZ041-047>049-056>058-063>065-088>090-097-210300-
...EASTERN AND SOUTHERN MISSOURI...

CITY           SKY/WX    TMP DP  RH WIND       PRES   REMARKS
ST. LOUIS INTL CLEAR     87  69  54 S10       29.89R HX  91
SPIRIT OF STL  CLEAR     79  71  76 SE5       29.88R
COLUMBIA       CLEAR     79  70  74 S9        29.87R
JEFFERSON CITY CLEAR     82  69  64 SE7       29.85R
ROLLA          CLEAR     80  69  69 SE8       29.92R
OSAGE BEACH    CLEAR     81  71  71 S3        29.89R
SPRINGFIELD    CLEAR     80  69  69 S7        29.90R
BRANSON        PTCLDY    81  68  65 SE8       29.94R
JOPLIN         CLEAR     82  71  69 SE7       29.87R
WEST PLAINS    CLEAR     81  71  71 SE8       29.97R

$$

IAZ060-094-KSZ022-034>040-054-083-096-NEZ052-066-093-210300-
...KANSAS...SOUTHEAST NEBRASKA AND IOWA...

CITY           SKY/WX    TMP DP  RH WIND       PRES   REMARKS
TOPEKA         MOCLDY    81  76  84 CALM      29.81R
MANHATTAN      PTCLDY    75  66  73 N3        29.81R
EMPORIA        PTCLDY    79  71  76 SE7       29.82R
CHANUTE        CLOUDY    82  73  74 SE6       29.84R
WICHITA        MOCLDY    84  70  62 S10       29.80R
OMAHA          CLEAR     66  55  67 N8        29.87R
LINCOLN        CLEAR     64  52  64 NE8       29.89R
FALLS CITY     MOCLDY    77  63  61 N5        29.83R
LAMONI         CLEAR     75  70  84 NW6       29.84R
DES MOINES     PTCLDY    77  60  55 N7        29.84R

$$





USA.gov is the U.S. government's official web portal to all federal, state and local government web resources and services.